Location: Carrières
(48.9495°N, 2.0407°E)
Time: 14:07:44
(UTC+00:00)

PSLV R/B - Pass Details

Date: 28 January 2023
Orbit: 491 x 557 km, 97.8° (Epoch: 21 March)

Event Time Altitude Azimuth Distance (km) Brightness Sun altitude
Rises 18:48:39 0° 178° (S) 2,558 7.3 -20.7°
Reaches altitude 10° 18:50:45 10° 184° (S) 1,683 6.4 -21.0°
Maximum altitude 18:54:15 48° 260° (W) 660 4.6 -21.6°
Drops below altitude 10° 18:57:49 10° 336° (NNW) 1,714 6.6 -22.2°
Sets 18:59:59 0° 342° (NNW) 2,612 7.5 -22.5°
